Regional Weather Roundup
Issued by NWS Binghamton, NY

Home | Current Version | Previous Version | Text Only | Print | Product List | Glossary On
Versions: 1 2 3 4 5 6 7 8 9 10 11 12 13 14 15 16 17 18 19 20 21 22 23 24 25 26 27 28
000
ASUS41 KBGM 110510
RWRBGM

REGIONAL WEATHER ROUNDUP
NATIONAL WEATHER SERVICE BINGHAMTON NY
1200 AM EST MON DEC 11 2017

Note: "fair" indicates few or no clouds below 12,000 feet with no
significant weather and/or obstructions to visibility.

* = Station(s) that does not report precipitation, such as rain,
snow, etc, also no thunder or fog.

NYZ009-015>018-022>025-036-037-044>046-055>057-062-110600
...Central New York...

CITY           SKY/WX    TMP DP  RH WIND       PRES   REMARKS
Binghamton     CLOUDY    26  16  65 W10       29.86S WCI  16
Cortland       CLOUDY    28  21  74 SW7       29.87F WCI  21
Dansville      CLOUDY    30  17  58 MISG      29.89S
Elmira         CLOUDY    31  19  61 SW12      29.90S WCI  22
Seneca Falls   CLOUDY    30  21  69 SW7       29.91S WCI  23
Ithaca         CLOUDY    28  19  69 SW9       29.88F WCI  19
Hornell        CLOUDY    27  18  69 W7        29.90F WCI  19
Monticello     NOT AVBL
Penn Yan       CLOUDY    30  17  58 SW8       29.88S WCI  22
Rome           LGT SNOW  28  26  92 SW3       29.90S FOG
Sidney         CLOUDY    28  18  64 W3        29.89S
Syracuse       FLURRIES  29  26  89 SW8       29.89S WCI  21
$$

PAZ038>040-043-044-047-048-072-110600
...Northeast Pennsylvania...

CITY           SKY/WX    TMP DP  RH WIND       PRES   REMARKS
Hazleton       CLOUDY    30  18  59 CALM      29.95S
Scranton       CLOUDY    31  19  61 SW8       29.94S WCI  23
$$
&&
KEY
WCI = Wind Chill Index
VSB = Visibility
HX  = Heat Index
$$




USA.gov is the U.S. government's official web portal to all federal, state and local government web resources and services.